TimeEST,TemperatureF,Dew PointF,Humidity,Sea Level PressureIn,VisibilityMPH,Wind Direction,Wind SpeedMPH,Gust SpeedMPH,PrecipitationIn,Events,Conditions,WindDirDegrees,DateUTC
12:53 AM,62.1,57.0,84,30.04,10.0,North,11.5,-,N/A,,Overcast,360,2012-11-20 05:53:00
1:53 AM,62.1,57.0,84,30.03,10.0,NNW,9.2,-,N/A,,Overcast,330,2012-11-20 06:53:00
2:53 AM,61.0,57.0,87,30.02,10.0,North,10.4,-,N/A,,Overcast,360,2012-11-20 07:53:00
3:53 AM,61.0,57.0,87,30.01,10.0,NNW,9.2,-,N/A,,Overcast,330,2012-11-20 08:53:00
4:53 AM,61.0,57.0,87,30.01,10.0,North,10.4,-,N/A,,Overcast,350,2012-11-20 09:53:00
5:53 AM,60.1,57.0,90,30.01,10.0,North,9.2,-,N/A,,Overcast,360,2012-11-20 10:53:00
6:53 AM,60.1,57.0,90,30.03,10.0,North,8.1,-,N/A,,Overcast,360,2012-11-20 11:53:00
7:53 AM,60.1,59.0,96,30.04,2.0,NNW,11.5,-,N/A,,Overcast,330,2012-11-20 12:53:00
8:00 AM,60.8,59.0,94,30.04,4.0,NNW,11.5,-,N/A,,Overcast,340,2012-11-20 13:00:00
8:53 AM,61.0,59.0,93,30.04,5.0,NW,12.7,-,N/A,,Overcast,320,2012-11-20 13:53:00
9:53 AM,62.1,59.0,90,30.06,10.0,NNW,15.0,-,N/A,,Overcast,340,2012-11-20 14:53:00
10:53 AM,63.0,59.0,87,30.04,10.0,NNW,12.7,-,N/A,,Overcast,340,2012-11-20 15:53:00
11:53 AM,63.0,60.1,90,30.03,10.0,NNW,11.5,-,N/A,,Overcast,330,2012-11-20 16:53:00
12:53 PM,64.0,60.1,87,30.00,10.0,NNW,11.5,-,N/A,,Overcast,340,2012-11-20 17:53:00
1:53 PM,64.4,60.8,88,29.98,10.0,NNW,12.7,-,N/A,,Overcast,330,2012-11-20 18:53:00
2:17 PM,64.4,60.8,88,29.97,10.0,NNW,9.2,-,N/A,,Overcast,330,2012-11-20 19:17:00
2:53 PM,66.0,61.0,84,29.96,10.0,NW,11.5,-,N/A,,Overcast,320,2012-11-20 19:53:00
3:53 PM,66.9,61.0,81,29.96,10.0,NW,8.1,-,N/A,,Overcast,320,2012-11-20 20:53:00
4:26 PM,68.0,60.8,78,29.96,10.0,NW,8.1,-,N/A,,Overcast,320,2012-11-20 21:26:00
4:49 PM,68.0,62.6,83,29.95,10.0,NW,8.1,-,N/A,,Scattered Clouds,320,2012-11-20 21:49:00
4:53 PM,68.0,61.0,78,29.96,10.0,NW,8.1,-,N/A,,Partly Cloudy,320,2012-11-20 21:53:00
5:53 PM,63.0,61.0,93,29.95,10.0,West,5.8,-,N/A,,Clear,270,2012-11-20 22:53:00
6:53 PM,64.0,61.0,90,29.97,10.0,SW,4.6,-,N/A,,Mostly Cloudy,230,2012-11-20 23:53:00
7:53 PM,64.0,61.0,90,29.99,10.0,WSW,4.6,-,N/A,,Overcast,250,2012-11-21 00:53:00
8:53 PM,64.0,62.1,93,30.00,10.0,West,3.5,-,N/A,,Overcast,280,2012-11-21 01:53:00
9:53 PM,61.0,60.1,97,29.99,8.0,WNW,5.8,-,N/A,,Mostly Cloudy,290,2012-11-21 02:53:00
10:53 PM,64.9,61.0,87,29.99,10.0,North,9.2,-,N/A,,Scattered Clouds,360,2012-11-21 03:53:00
11:53 PM,64.9,60.1,84,29.99,10.0,North,11.5,-,N/A,,Clear,350,2012-11-21 04:53:00